Flag for Netherlands Weather past 2 weeks in Dordrecht, Netherlands

Now
46 °F

Cloudy.


Feels Like: 41 °F
Forecast: 39 / 47 °F
Wind: 13 mph from West

Location: Rotterdam Zestienhoven Airport

Current Time: Jan 27, 2015 at 3:44:20 PM

Latest Report: Jan 27, 2015 at 2:25 PM


Visibility: N/A

Pressure: 30.21 "Hg

Humidity: 76%

Dew point: 39 °F

Location of DordrechtLocation

Historic Weather in Dordrecht — Graph

°F

Dordrecht temperature yesterday

Maximum temperature yesterday: 48 °F (at 12:55 PM)
Minimum temperature yesterday: 41 °F (at 11:25 PM)
Average temperature yesterday: 44 °F

Past Weeks' High & Low Weather Summary

 TemperatureHumidityPressure
High50 °F (Jan 12, 2:25 PM)100% (Jan 12, 11:25 PM)30.42 "Hg (Jan 12, 11:25 PM)
Low23 °F (Jan 23, 7:25 AM)61% (Jan 17, 3:25 PM)29.30 "Hg (Jan 15, 8:25 AM)
Average38 °F87%29.92 "Hg
* Reported Jan 12 2:25 PM — Jan 27 2:25 PM, Dordrecht, Weather by CustomWeather, © 2014

Note: Actual official high and low records may vary slightly from our data, if they occured in-between our weather recording intervals... More about our weather records

Advertising

Dordrecht weather history for previous 24 hours

 ConditionsComfort  
Time TempWeatherWind HumidityBarometerVisibility
2:25 PM
Jan 27
46 °FCloudy.13 mph76%30.21 "HgN/A
1:55 PM45 °FBroken clouds.13 mph81%30.21 "HgN/A
1:25 PM46 °FCloudy.15 mph76%30.24 "HgN/A
12:55 PM45 °FPassing clouds.13 mph81%30.21 "HgN/A
12:25 PM46 °FScattered clouds.13 mph82%30.24 "HgN/A
11:55 AM45 °FScattered clouds.12 mph81%30.24 "HgN/A
11:25 AM45 °FBroken clouds.10 mph81%30.24 "HgN/A
10:55 AM43 °FBroken clouds.9 mph87%30.24 "HgN/A
10:25 AM43 °FScattered clouds.9 mph87%30.24 "HgN/A
9:55 AM41 °FQuite cool.8 mph87%30.21 "HgN/A
9:25 AM41 °FClear.8 mph87%30.21 "HgN/A
8:55 AM41 °FPassing clouds.7 mph87%30.21 "HgN/A
8:25 AM39 °FClear.7 mph87%30.21 "HgN/A
7:55 AM39 °FPassing clouds.9 mph93%30.21 "HgN/A
7:25 AM39 °FPassing clouds.9 mph87%30.21 "HgN/A
6:55 AM39 °FClear.9 mph87%30.21 "HgN/A
6:25 AM39 °FPassing clouds.9 mph87%30.21 "HgN/A
5:55 AM39 °FClear.10 mph87%30.21 "HgN/A
5:25 AM39 °FClear.9 mph87%30.21 "HgN/A
4:55 AM39 °FChilly.9 mph87%30.21 "HgN/A
4:25 AM39 °FPassing clouds.10 mph87%30.21 "HgN/A
3:55 AM37 °FPassing clouds.9 mph87%30.21 "HgN/A
3:25 AM36 °FClear.7 mph87%30.21 "HgN/A
2:55 AM37 °FPassing clouds.8 mph87%30.21 "HgN/A
2:25 AM39 °FChilly.8 mph81%30.18 "HgN/A
1:55 AM39 °FChilly.8 mph81%30.18 "HgN/A
1:25 AM39 °FPassing clouds.10 mph81%30.18 "HgN/A
12:55 AM41 °FPassing clouds.10 mph76%30.18 "HgN/A
12:25 AM41 °FPassing clouds.12 mph81%30.18 "HgN/A
11:55 PM
Jan 26
41 °FPassing clouds.10 mph81%30.18 "HgN/A
11:25 PM41 °FPassing clouds.12 mph81%30.18 "HgN/A
10:55 PM43 °FClear.12 mph76%30.18 "HgN/A
10:25 PM43 °FPartly cloudy.14 mph81%30.15 "HgN/A
9:55 PM43 °FMostly cloudy.15 mph81%30.15 "HgN/A
9:25 PM43 °FPartly cloudy.15 mph81%30.15 "HgN/A
8:55 PM43 °FPassing clouds.14 mph81%30.15 "HgN/A
8:25 PM43 °FPassing clouds.16 mph76%30.12 "HgN/A
7:55 PM45 °FPartly cloudy.17 mph76%30.12 "HgN/A
7:25 PM43 °FPassing clouds.14 mph81%30.12 "HgN/A
6:55 PM43 °FPassing clouds.15 mph81%30.12 "HgN/A
6:25 PM45 °FPartly cloudy.15 mph76%30.12 "HgN/A
5:55 PM45 °FPartly cloudy.16 mph76%30.09 "HgN/A
5:25 PM45 °FPassing clouds.16 mph81%30.09 "HgN/A
4:55 PM45 °FClear.15 mph81%30.09 "HgN/A
4:25 PM46 °FClear.16 mph76%30.07 "HgN/A
3:55 PM46 °FPassing clouds.16 mph82%30.07 "HgN/A
3:25 PM46 °FOvercast.13 mph76%30.07 "HgN/A
Weather by CustomWeather, © 2014

See weather overviewHow to use our weather pages